Terminal Aerodrome Forecast
Issued by NWS Duluth, MN

Home | Current Version | Previous Version | Text Only | Print | Product List | Glossary On
Versions: 1 2 3 4 5 6 7 8 9 10 11 12 13 14 15 16 17 18 19 20 21 22 23 24 25 26 27 28 29
000
FTUS43 KDLH 160500
TAFDLH
TAF
KDLH 160524Z 1606/1706 35014G20KT 1 1/2SM -SN BR SCT007 OVC019
     FM160700 35012G22KT 3SM -SN BR SCT008 OVC021
      TEMPO 1609/1611 6SM -SN SCT016 BKN028 OVC040
     FM161100 33012G18KT P6SM BKN028 OVC040
     FM161900 31010G16KT 5SM -SN BKN012 OVC028
     FM162300 30011KT P6SM SCT014 BKN027=

USA.gov is the U.S. government's official web portal to all federal, state and local government web resources and services.